This is the latest recevied weather packets stored in our database for station/object VE9LJW. If no packets are shown the sender has not sent any weather packets the latest 10 day(s).
| Time | Temp. | Humidity | Pressure | Rain* | Wind** | Luminosity | Snow |
|---|---|---|---|---|---|---|---|
| 1778144153 | 12.78° C | 99% | 999.8 hPa | 0 mm | - | 0 W/m² | - |
| 1778143850 | 12.78° C | 99% | 999.7 hPa | 0 mm | - | 0 W/m² | - |
| 1778143546 | 12.78° C | 99% | 999.7 hPa | 0 mm | - | 0 W/m² | - |
| 1778143244 | 13.33° C | 99% | 999.8 hPa | 0 mm | - | 0 W/m² | - |
| 1778142939 | 13.33° C | 99% | 999.4 hPa | 1.27 mm | - | 0 W/m² | - |
| 1778142637 | 13.33° C | 99% | 999.3 hPa | 3.05 mm | - | 0 W/m² | - |
| 1778142332 | 13.33° C | 99% | 999.1 hPa | 3.56 mm | - | 0 W/m² | - |
| 1778142029 | 13.33° C | 99% | 999.2 hPa | 2.29 mm | - | 0 W/m² | - |
| 1778141726 | 13.33° C | 99% | 999.5 hPa | 3.05 mm | - | 0 W/m² | - |
| 1778141423 | 13.33° C | 99% | 999.4 hPa | 4.83 mm | - | 0 W/m² | - |
| 1778141118 | 13.33° C | 99% | 999.5 hPa | 7.11 mm | - | 0 W/m² | - |
| 1778140815 | 13.33° C | 99% | 999.7 hPa | 6.6 mm | - | 0 W/m² | - |
| 1778140510 | 13.33° C | 99% | 1000.3 hPa | 3.05 mm | - | 0 W/m² | - |
| 1778140207 | 13.33° C | 99% | 1000 hPa | 0.51 mm | - | 0 W/m² | - |
| 1778139904 | 13.33° C | 99% | 999.6 hPa | 0 mm | - | 0 W/m² | - |
| 1778139603 | 13.33° C | 99% | 999.6 hPa | 0.51 mm | - | 0 W/m² | - |
| 1778139298 | 13.33° C | 99% | 999.4 hPa | 0.51 mm | - | 0 W/m² | - |
| 1778138995 | 13.33° C | 99% | 999.3 hPa | 0 mm | - | 0 W/m² | - |
| 1778138692 | 13.89° C | 99% | 999.3 hPa | 0 mm | - | 0 W/m² | - |
| 1778138389 | 13.89° C | 99% | 999.3 hPa | 0.51 mm | - | 0 W/m² | - |
| 1778138086 | 13.89° C | 99% | 999.5 hPa | 3.56 mm | - | 0 W/m² | - |
| 1778137783 | 13.89° C | 99% | 999.5 hPa | 4.83 mm | - | 0 W/m² | - |
| 1778137481 | 13.89° C | 99% | 999.5 hPa | 3.56 mm | - | 0 W/m² | - |
| 1778137176 | 13.89° C | 99% | 999.6 hPa | 4.32 mm | - | 0 W/m² | - |
| 1778136873 | 13.89° C | 99% | 999.8 hPa | 2.29 mm | - | 0 W/m² | - |
* Rain latest hour (hover to see other rain measurements)
** Current wind speed in m/s (hover to see current wind gust speed)